{"data":{"norad_id":57289,"intl_designator":"2023-095B","name":"HULIANWANG JISHU SHIYAN*","alt_names":[],"object_type":"PAYLOAD","status":"ACTIVE","operator":null,"country":"PRC","launch_date":"2023-07-09","launch_site_code":"JSC","launch_vehicle":null,"mission":null,"orbit_class":"UNKNOWN","rcs_meters":null,"size_class":null,"mass_kg":null,"dimensions":null,"purposes":[],"wikipedia_slug":null,"has_3d_model":false,"image_url":null,"decayed_at":null,"tle_current":{"epoch":"2026-09-21T21:41:01.576608Z","epoch_age_seconds":84145,"freshness":"FRESH","line1":"1 57289U 23095B   26264.90349047  .00000034  00000+0  35128-4 0  9995","line2":"2 57289  86.5065 331.3328 0014430 279.5233  80.4279 13.39555897156703","mean_motion":13.39555897,"eccentricity":0.001443,"inclination_deg":86.5065,"raan_deg":331.3328,"arg_perigee_deg":279.5233,"mean_anomaly_deg":80.4279,"bstar":3.5128e-5,"rev_number":15670,"period_min":107.49831367433,"perigee_km":1100.127265127,"apogee_km":1121.7407240174,"semimajor_km":7489.0709945722,"source":"CELESTRAK","updated_at":"2026-09-22T09:00:26.121510Z"}}}